Hourly Data Report for September 16, 2017

All times are specified in Local Standard Time (LST). Add 1 hour to adjust for Daylight Saving Time where and when it is observed.

SUSSEX FOUR CORNERS
NEW BRUNSWICK

45°44'30.048" N
65°31'44.039" W
47.00 m
8105210
71656
ASF

Download Data

Hourly Data (September 2017)
Hourly Data Report for September 16, 2017
Temp Definition
°C
Dew Point Temp Definition
°C
Rel Hum Definition
%
Wind Dir Definition
10's deg

Wind Spd Definition
km/h
Visibility Definition
km
Stn Press Definition
kPa
Hmdx Definition


Wind Chill Definition


Weather Definition


TIME
00:00 14.7 14.3 97 22 8   101.36     LegendNANA
01:00 15.7 15.4 98 22 7   101.35     LegendNANA
02:00 15.7 15.5 99 24 3   101.33     LegendNANA
03:00 16.0 15.8 99 24 7   101.30     LegendNANA
04:00 16.5 16.3 99 25 6   101.32     LegendNANA
05:00 16.7 16.5 99 23 12   101.34     LegendNANA
06:00 16.7 16.6 99 20 9   101.33     LegendNANA
07:00 16.9 16.7 99 21 12   101.31     LegendNANA
08:00 17.0 16.6 98 22 12   101.38     LegendNANA
09:00 17.6 17.0 97 20 9   101.40     LegendNANA
10:00 18.5 17.3 93 20 11   101.36     LegendNANA
11:00 20.4 18.2 88 21 11   101.30 27   LegendNANA
12:00 22.5 18.4 78 21 11   101.27 29   LegendNANA
13:00 23.7 19.3 77 20 16   101.22 31   LegendNANA
14:00 24.8 19.1 71 20 16   101.19 32   LegendNANA
15:00 25.3 19.5 70 20 15   101.20 32   LegendNANA
16:00 24.7 19.1 71 21 16   101.19 32   LegendNANA
17:00 23.8 18.7 73 23 14   101.20 30   LegendNANA
18:00 22.0 18.6 81 22 14   101.20 28   LegendNANA
19:00 20.2 18.2 88 27 11   101.28 26   LegendNANA
20:00 17.3 14.2 82 4 18   101.43     LegendNANA
21:00 15.7 13.2 85 4 13   101.42     LegendNANA
22:00 14.7 13.1 90 3 14   101.43     LegendNANA
23:00 14.2 12.8 92 4 11   101.48     LegendNANA

Notes on Data Quality.

Legend

  • E = Estimated
  • M = Missing
  • NA = Not Available
  • ‡ = Partner data that is not subject to review by the National Climate Archives
Date modified: